Regional Weather Roundup
Issued by NWS Little Rock, AR

Home | Current Version | Previous Version | Graphics & Text | Print | Product List | Glossary On
Versions: 1 2 3 4 5 6 7 8 9 10 11 12 13 14 15 16 17 18 19 20 21 22 23 24 25 26 27 28 29 30 31 32 33 34 35 36 37 38 39 40 41 42 43 44 45 46 47 48 49
000
ASUS44 KLZK 041805
RWRLZK

WEATHER ROUNDUP FOR ARKANSAS
NATIONAL WEATHER SERVICE LITTLE ROCK AR
100 PM CDT SAT JUL 04 2015

NOTE: "FAIR" INDICATES FEW OR NO CLOUDS BELOW 12,000 FEET WITH NO
SIGNIFICANT WEATHER AND/OR OBSTRUCTIONS TO VISIBILITY.

ARZ001-003-010-029-041900-
NORTHWEST ARKANSAS

CITY           SKY/WX    TMP DP  RH WIND       PRES   REMARKS
FAYETTEVILLE   PTSUNNY   82  69  64 VRB3      30.00F HX  85
6HR MIN TEMP:  65; 6HR MAX TEMP:  82;

FORT SMITH     SUNNY     84  70  62 NE6       29.97F HX  88
6HR MIN TEMP:  71; 6HR MAX TEMP:  84;

HARRISON       MOSUNNY   80  68  66 E6        30.02F
6HR MIN TEMP:  69; 6HR MAX TEMP:  80;

BENTONVILLE    PTSUNNY   82  66  57 E5        30.02F HX  85
6HR MIN TEMP:  70; 6HR MAX TEMP:  82; 6HR PCP:  0.01;

ROGERS         PTSUNNY   80  68  66 MISG      30.01F
6HR MIN TEMP:  71; 6HR MAX TEMP:  81;

SILOAM SPGS    SUNNY     81  66  61 E6          N/A
6HR MIN TEMP:  66; 6HR MAX TEMP:  82;

HIGHFILL       MOSUNNY   83  71  67 SE7       30.00F HX  87
6HR MIN TEMP:  69; 6HR MAX TEMP:  83;

SPRINGDALE     PTSUNNY   82  70  65 E5        30.02F HX  86
$$

ARZ004-005-016-041900-
NORTH CENTRAL ARKANSAS

CITY           SKY/WX    TMP DP  RH WIND       PRES   REMARKS
BATESVILLE     CLOUDY    73  70  88 CALM      30.00F
6HR MIN TEMP:  68; 6HR MAX TEMP:  75;

FLIPPIN        MOSUNNY   79  70  73 SE6       29.99S
6HR MIN TEMP:  68; 6HR MAX TEMP:  79;

MTN HOME       PTSUNNY   78  70  76 VRB6      30.01S
6HR MIN TEMP:  68; 6HR MAX TEMP:  80;

$$

ARZ040-041-041900-
WEST CENTRAL ARKANSAS

CITY           SKY/WX    TMP DP  RH WIND       PRES   REMARKS
MENA           MOSUNNY   81  73  78 SW5       30.01S HX  85
MOUNT IDA      PTSUNNY   79  71  76 VRB3      29.98F
6HR MIN TEMP:  70; 6HR MAX TEMP:  82; 6HR PCP:  0.01;

$$

ARZ009-017-025-026-028-041900-
NORTHEAST ARKANSAS

CITY           SKY/WX    TMP DP  RH WIND       PRES   REMARKS
JONESBORO      CLOUDY    76  71  85 CALM      30.00R
6HR MIN TEMP:  70; 6HR MAX TEMP:  76;

NEWPORT        CLOUDY    78  71  79 CALM      30.00S
6HR MIN TEMP:  70; 6HR MAX TEMP:  79;

WALNUT RIDGE   CLOUDY    77  70  78 SE5       30.00R
6HR MIN TEMP:  72; 6HR MAX TEMP:  77;

BLYTHEVILLE    CLOUDY    79  72  79 SW6       29.99F
6HR MIN TEMP:  73; 6HR MAX TEMP:  79;

$$

ARZ022-023-033-042-044-041900-
CENTRAL ARKANSAS

CITY           SKY/WX    TMP DP  RH WIND       PRES   REMARKS
LITTLE ROCK    PTSUNNY   79  68  69 SW5       29.99F
6HR MIN TEMP:  72; 6HR MAX TEMP:  80; 6HR PCP:  0.35;

N LITTLE ROCK  PTSUNNY   77  71  79 SW7       29.99F
6HR MIN TEMP:  69; 6HR MAX TEMP:  78;

JACKSONVILLE   PTSUNNY   79  69  72 SW6       29.99F
6HR MIN TEMP:  70; 6HR MAX TEMP:  79;

SEARCY         CLOUDY    78  71  79 CALM      30.01S
6HR MIN TEMP:  69; 6HR MAX TEMP:  78;

HOT SPRINGS    MOSUNNY   79  70  74 VRB3      30.00F
6HR MIN TEMP:  70; 6HR MAX TEMP:  79; 6HR PCP:  0.05;

RUSSELLVILLE   MOSUNNY   81  70  69 CALM      29.98F
6HR MIN TEMP:  70; 6HR MAX TEMP:  81;

CLINTON        FAIR      81  72  74 SW3       30.00F
$$

ARZ036-041900-
EAST ARKANSAS

CITY           SKY/WX    TMP DP  RH WIND       PRES   REMARKS
WEST MEMPHIS   CLOUDY    76  72  87 S10       29.99F
6HR MIN TEMP:  72; 6HR MAX TEMP:  77; 6HR PCP:  0.02;

$$

ARZ050-053-066-070-073-041900-
SOUTHWEST ARKANSAS

CITY           SKY/WX    TMP DP  RH WIND       PRES   REMARKS
ARKADELPHIA    FAIR      78  72  82 S7        30.01F
6HR MIN TEMP:  70; 6HR MAX TEMP:  78; 6HR PCP:  0.11;

CAMDEN         RAIN      68  66  94 MISG      30.00F
TEXARKANA      LGT RAIN  69  68  96 E7        30.02S
6HR MIN TEMP:  69; 6HR MAX TEMP:  74; 6HR PCP:  1.81;

EL DORADO      LGT RAIN  71  69  93 CALM      30.04F
6HR MIN TEMP:  68; 6HR MAX TEMP:  72;

DE QUEEN       CLOUDY    76  71  85 S8        29.98F
6HR MIN TEMP:  70; 6HR MAX TEMP:  77; 6HR PCP:  0.06;

$$

ARZ056-057-069-041900-
SOUTHEAST ARKANSAS

CITY           SKY/WX    TMP DP  RH WIND       PRES   REMARKS
PINE BLUFF     CLOUDY    74  68  81 SW10      30.00F
6HR MIN TEMP:  69; 6HR MAX TEMP:  74; 6HR PCP:  0.24;

STUTTGART      CLOUDY    75  68  78 SW8       29.99F
6HR MIN TEMP:  72; 6HR MAX TEMP:  77;

MONTICELLO     CLOUDY    71  70  96 SE5       29.99F
6HR MIN TEMP:  70; 6HR MAX TEMP:  71; 6HR PCP:  0.53;


$$





USA.gov is the U.S. government's official web portal to all federal, state and local government web resources and services.